Location: Chaumontel
(49.1247°N, 2.4324°E)
Time: 07:35:35
(UTC+00:00)

IRIDIUM 103 - Pass Details

Date: 20 May 2025
Orbit: 775 x 780 km, 86.4° (Epoch: 20 June)

Event Time Altitude Azimuth Distance (km) Brightness Sun altitude
Exits shadow 00:21:15 26° 136° (SE) 1,512 5.5 -20.5°
Maximum altitude 00:23:37 40° 85° (E) 1,134 5.2 -20.4°
Drops below altitude 10° 00:28:30 10° 17° (NNE) 2,344 8.0 -20.3°
Sets 00:30:58 0° 10° (N) 3,276 9.2 -20.2°
